Probability
2 3 10 18 18 11 3 1 0 0 0 0 0 0 0 0 0 0 1 3 4 5 7 10 12 12 12 11 9 5 2 1 1 1 1 0 1 1 1 0 1 2 3 3 3 2 1 2 1
3 8 16 20 15 7 2 0 0 0 0 0 0 0 0 0 0 0 1 2 3 4 6 10 12 11 11 10 8 5 3 3 3 2 1 1 2 2 1 0 0 2 3 3 3 1 1 1 1
8 14 21 18 10 2 0 0 1 1 0 0 0 0 0 0 0 0 1 1 1 3 6 11 13 11 8 7 7 6 4 5 5 4 3 2 3 3 2 1 1 2 3 3 2 1 0 0 0
16 21 21 13 5 1 0 0 1 1 0 0 0 1 0 0 0 0 0 0 1 2 6 11 14 11 8 6 7 6 5 5 4 3 3 3 4 4 2 1 2 3 3 3 1 0 0 0 0
23 24 17 7 1 0 0 0 0 0 0 0 0 0 0 0 0 0 0 0 1 2 5 10 14 13 8 6 7 6 5 4 2 1 2 3 4 3 1 1 2 3 3 2 1 0 0 0 0
24 21 12 4 0 0 0 0 0 1 1 1 0 0 0 0 0 0 0 0 1 2 4 8 12 12 8 6 6 5 5 3 1 1 2 2 2 2 1 1 2 3 3 2 1 0 0 0 0
19 13 6 2 0 0 0 0 1 3 3 1 0 0 0 0 0 0 0 0 0 1 3 5 8 9 9 7 6 6 6 5 3 3 3 4 4 3 2 2 3 4 4 3 2 1 1 1 1
10 6 2 1 0 0 0 0 1 2 2 1 0 0 0 0 0 0 0 0 0 0 1 3 5 8 9 9 9 9 9 9 7 5 4 5 6 5 3 3 3 4 5 5 5 4 4 4 4
3 2 0 0 0 0 0 0 1 1 1 0 0 0 0 0 0 0 0 0 0 0 0 1 4 6 8 9 11 13 14 13 11 9 6 6 5 4 3 3 3 4 6 7 7 7 8 9 8
1 0 0 0 0 0 0 1 2 2 1 1 1 0 0 0 0 0 0 0 0 0 0 1 2 4 5 6 9 12 14 15 13 10 8 7 6 4 3 3 4 6 8 8 8 8 9 9 8
1 0 0 0 0 0 0 1 2 4 3 3 2 1 0 0 0 0 0 0 0 0 0 1 2 3 3 3 5 8 11 13 12 10 8 7 6 4 3 4 6 8 8 7 7 7 7 8 7
0 0 0 0 0 0 0 0 1 3 3 4 3 1 0 0 0 0 0 0 0 1 2 2 2 2 3 3 3 5 8 9 9 7 5 5 4 4 4 6 8 9 9 7 7 7 8 8 8
0 0 0 0 0 0 0 0 0 1 2 2 2 1 0 0 0 0 0 0 1 3 4 4 3 4 4 4 5 6 7 7 6 4 3 3 3 5 7 8 9 9 8 7 7 8 10 10 9
0 0 0 0 0 0 1 1 1 1 1 1 0 0 0 0 0 0 1 2 3 5 6 6 6 7 7 6 6 7 7 5 4 3 3 3 4 6 8 8 8 7 7 7 8 9 11 10 9
0 0 0 0 0 0 1 2 3 2 1 0 0 0 1 1 1 1 3 6 7 8 9 10 10 11 11 9 7 7 5 4 3 3 3 5 6 7 8 7 5 5 6 8 9 10 11 10 8
0 0 0 0 0 0 1 3 5 3 1 1 1 1 2 2 1 2 6 10 12 12 14 14 13 14 14 12 10 7 4 3 3 4 5 6 6 6 8 7 4 4 7 10 11 11 10 9 7
0 0 0 0 0 0 0 3 4 3 1 2 2 3 4 4 3 4 8 12 15 17 19 18 16 15 14 13 11 8 5 3 4 6 7 7 6 7 8 8 6 6 9 11 10 10 10 10 8
0 0 0 0 0 0 0 2 3 3 2 3 4 6 7 7 7 9 12 14 16 20 22 20 17 15 14 13 11 7 5 4 5 7 8 9 10 10 10 9 7 8 10 11 10 9 11 11 8
0 0 0 0 0 0 1 2 3 3 3 5 7 8 8 10 12 14 16 15 16 21 25 23 19 16 15 14 10 7 7 7 6 7 9 12 13 13 12 9 7 8 10 10 10 10 10 8 5
0 0 0 0 0 1 2 3 4 3 3 5 9 9 10 14 17 18 19 17 17 21 26 24 20 17 16 14 11 8 8 8 6 5 8 11 12 12 11 9 8 7 8 9 10 10 10 8 6
0 0 0 0 0 1 2 3 5 5 4 6 10 11 12 16 19 20 20 19 17 21 25 24 20 18 16 14 11 8 8 7 5 4 6 8 9 10 10 10 10 10 10 10 10 10 11 11 10
0 0 0 0 0 0 1 3 7 9 7 9 13 14 14 17 19 20 21 19 18 19 22 24 22 19 16 14 11 8 7 6 5 6 7 9 10 9 10 11 12 13 13 11 11 11 12 13 12
0 0 0 0 0 0 1 3 6 9 9 11 15 16 15 16 19 21 21 20 17 15 17 22 24 21 16 14 13 10 8 8 8 9 11 13 12 12 12 13 14 14 13 13 12 12 13 13 12
0 0 0 0 0 0 0 2 4 6 8 12 16 17 16 16 19 20 21 20 15 11 12 18 25 23 17 16 14 11 9 9 10 12 14 14 14 13 14 15 16 15 15 14 13 13 14 13 12
0 0 0 0 0 0 0 1 3 5 8 12 16 17 18 18 19 20 20 19 14 9 12 20 27 26 21 18 17 14 12 11 11 12 14 13 13 12 14 16 16 15 15 14 12 12 13 13 13
0 0 0 0 0 0 0 1 2 3 7 12 16 18 18 18 17 17 18 18 13 12 16 23 29 30 26 23 22 20 18 14 12 13 14 12 10 10 12 15 15 15 14 12 11 11 12 12 13
0 0 0 0 0 0 0 1 3 5 7 13 19 20 18 16 14 14 15 15 14 15 20 26 31 32 30 28 26 24 23 19 16 16 16 13 11 11 13 14 14 14 13 11 9 9 11 12 12
0 0 0 0 0 0 0 1 4 8 11 15 22 24 19 15 14 14 15 16 17 21 24 28 32 34 32 29 26 24 24 23 21 21 21 18 16 15 14 12 12 12 12 10 9 10 12 14 13
0 0 0 0 0 0 0 1 4 8 12 16 22 25 21 17 16 17 18 19 22 25 26 27 29 31 31 28 25 25 25 24 22 23 23 23 21 17 13 11 11 10 10 10 10 11 13 16 16
0 0 0 0 0 0 0 1 3 6 10 14 21 24 21 18 17 18 18 20 23 25 26 25 25 28 30 28 25 25 27 25 22 22 23 24 22 17 14 12 11 9 8 9 11 11 13 17 19
Wind_Speed
9 10 9 5 4 3 4 8 10 10 10 11 10 11 14 14 10 7 6 8 9 10 11 10 9 8 8 7 6 6 6 5 5 6 6 6 6 6 6 6 6 6 6 6 6 6 6 6 5
9 10 8 5 3 2 7 9 10 10 9 8 10 12 14 14 12 8 6 7 9 9 9 9 10 8 8 7 6 5 5 5 5 6 6 6 6 6 6 6 6 5 5 6 6 6 6 5 5
11 12 6 4 1 4 8 9 8 8 8 9 11 13 12 10 9 7 6 7 8 9 10 11 10 8 7 7 6 5 5 5 5 6 6 6 6 6 6 6 6 5 5 5 5 5 6 6 6
8 7 5 2 5 7 8 7 8 8 9 9 10 11 12 10 8 8 6 7 9 10 11 11 10 8 7 7 6 6 5 6 6 6 6 6 6 6 6 6 6 5 5 4 5 5 6 6 6
8 5 3 1 6 8 9 9 9 10 11 11 13 12 11 11 10 8 6 7 8 10 11 11 10 8 7 6 7 7 6 6 6 6 6 6 6 6 6 6 5 5 5 5 4 5 6 6 7
5 4 2 3 5 8 8 8 9 10 11 12 11 12 10 8 8 6 7 7 8 9 10 10 10 8 7 8 9 8 7 6 6 6 6 6 6 6 6 6 6 6 5 5 4 5 6 6 7
7 6 3 3 5 7 7 8 9 9 10 10 9 10 8 8 7 7 6 8 8 8 9 8 8 7 8 9 10 9 8 7 7 7 6 6 6 7 7 7 7 6 5 5 5 5 6 6 7
6 5 4 4 6 7 6 8 9 10 10 8 8 8 7 7 7 7 7 8 7 7 7 6 7 6 7 8 10 10 10 9 8 7 7 6 6 7 8 8 7 7 6 6 6 6 7 7 8
6 5 3 5 6 6 6 8 9 10 9 10 11 11 10 9 8 8 7 7 6 6 6 5 5 5 5 6 9 10 10 9 7 6 7 5 3 4 5 6 9 8 7 7 6 6 7 7 8
4 3 3 4 5 5 6 7 6 7 9 9 10 11 10 8 8 8 6 6 6 6 5 5 5 4 5 4 6 4 5 5 4 3 3 3 2 2 3 7 8 8 7 7 7 7 6 7 4
3 2 2 3 4 4 6 6 6 7 8 7 8 9 8 8 8 7 6 7 6 5 6 6 6 5 5 4 4 2 3 3 4 4 2 2 1 1 2 2 3 4 5 3 4 5 4 3 2
3 2 1 3 3 3 4 6 7 7 8 9 8 9 8 7 7 7 6 6 6 5 7 7 7 5 5 5 3 3 3 2 3 4 2 2 1 1 1 1 1 1 1 1 1 2 2 2 2
3 2 1 3 3 2 2 6 7 8 9 10 10 8 7 7 7 7 7 7 6 6 7 7 6 6 5 4 2 3 3 3 3 3 3 2 2 2 2 1 1 0 0 1 1 1 1 2 2
4 3 2 2 3 3 2 5 6 7 9 9 9 8 7 7 6 6 7 6 6 5 6 6 6 6 5 4 2 2 3 3 3 3 3 2 2 2 1 1 0 0 0 1 1 1 0 1 1
7 6 4 3 4 3 3 5 7 7 9 9 9 8 7 7 6 6 6 6 6 6 5 5 5 7 6 4 2 3 3 3 3 3 3 2 2 2 1 1 1 1 1 0 0 1 0 1 1
8 7 6 5 6 5 5 3 7 8 9 8 8 9 8 6 5 6 7 6 7 7 6 4 5 7 5 3 2 2 3 3 3 3 3 2 2 2 1 1 1 1 1 1 0 0 1 0 0
8 8 7 5 7 6 6 5 7 8 9 8 8 8 9 8 7 6 7 8 7 7 6 6 6 6 4 3 2 2 2 2 2 3 2 2 2 2 1 1 1 1 1 1 2 2 2 1 0
7 6 6 5 5 5 3 4 8 8 8 9 9 8 8 8 8 7 8 9 8 7 6 6 5 5 3 3 3 2 3 3 2 3 2 2 2 2 1 1 1 1 1 1 2 2 1 1 1
11 8 5 3 4 4 3 3 6 7 8 9 9 9 8 8 9 9 8 8 8 7 7 6 5 4 3 2 2 2 2 2 2 2 3 2 2 2 1 2 1 1 1 1 2 2 2 1 0
12 9 7 4 5 5 4 3 5 8 9 8 9 9 10 10 11 11 9 8 8 7 7 6 5 4 3 2 2 1 2 2 3 2 2 3 2 2 2 2 1 1 1 1 1 1 1 2 1
11 9 8 8 7 7 5 4 5 6 6 9 9 9 10 11 12 11 10 8 8 7 7 5 4 4 3 3 2 2 2 2 2 2 2 2 2 2 2 2 2 1 1 1 1 1 1 2 2
10 9 10 10 9 6 7 5 6 6 7 8 10 10 9 11 11 11 10 9 8 8 7 6 5 4 3 3 2 2 3 2 2 2 2 2 1 2 2 2 2 2 2 2 2 2 2 2 2
9 9 11 12 9 9 8 5 4 6 7 9 10 11 10 11 11 11 10 10 9 9 8 7 6 5 4 3 2 2 2 1 2 2 2 2 1 1 2 2 2 2 2 2 3 2 2 2 2
10 11 13 12 7 9 9 6 3 6 7 8 11 11 11 11 12 11 11 10 8 9 8 8 7 5 4 3 3 2 2 1 2 2 1 1 1 1 2 2 2 2 2 2 3 2 2 2 3
10 10 8 6 5 7 7 6 3 4 6 8 11 11 12 11 11 11 11 10 9 8 8 8 7 6 5 4 3 2 1 1 2 1 1 1 1 2 2 2 2 2 2 2 2 2 2 2 2
9 10 8 6 6 6 6 4 3 3 5 7 10 11 11 11 10 10 10 10 9 9 8 8 8 6 5 4 3 2 2 1 1 1 1 2 2 2 2 2 2 2 2 3 2 2 2 2 2
10 9 8 8 10 7 5 4 4 6 7 8 10 10 11 10 10 10 10 9 9 9 8 9 8 6 5 5 4 3 2 2 1 1 2 2 2 1 2 2 2 2 2 3 2 2 2 3 3
11 9 6 6 6 8 6 4 3 5 5 6 9 10 9 8 9 9 8 7 7 7 8 9 8 7 6 5 3 4 3 2 2 2 2 2 2 2 2 2 2 2 2 2 2 2 2 3 3
10 11 9 6 6 7 5 3 2 3 3 5 8 10 9 9 9 9 8 8 7 6 7 8 8 7 6 5 3 3 3 3 2 2 2 2 2 1 2 2 1 2 2 3 3 3 3 3 3
12 10 10 8 7 8 7 2 2 1 4 5 8 10 9 9 9 8 8 8 7 6 5 6 6 8 7 6 4 4 3 3 3 3 2 2 1 1 1 1 1 2 2 2 3 4 4 3 3
Wind_Direction
194 209 215 230 246 242 35 52 53 53 50 50 51 52 53 52 50 73 88 92 99 110 121 124 123 120 118 118 118 121 125 130 140 146 144 144 144 142 142 139 139 144 149 150 152 159 166 165 165
218 219 221 234 255 31 57 55 58 57 57 57 60 61 63 63 68 86 93 93 105 111 120 122 126 125 125 124 121 122 125 129 137 150 153 149 146 146 147 147 148 151 157 164 164 169 172 174 177
241 240 251 237 8 51 60 59 66 70 70 66 70 61 58 63 68 84 95 95 98 101 109 121 129 129 129 133 134 133 131 129 126 136 149 149 146 146 147 151 152 154 157 166 174 179 178 180 187
243 236 241 277 41 56 66 69 75 74 70 65 75 70 65 64 76 87 91 91 95 103 109 122 133 136 142 147 149 146 137 128 124 129 139 145 148 146 147 153 160 162 159 165 178 187 189 189 195
237 258 246 16 52 61 60 63 69 67 67 68 74 78 76 72 80 87 91 88 96 105 112 129 140 143 148 154 156 149 141 136 134 134 138 146 151 152 155 161 166 169 170 177 186 196 199 202 205
257 255 267 76 64 66 61 61 66 67 71 73 80 84 80 85 83 84 81 84 82 95 108 125 144 147 149 148 151 150 144 142 140 139 145 153 159 167 169 168 165 168 177 187 194 196 199 206 215
255 281 293 86 92 67 59 61 65 71 64 65 77 87 88 88 81 76 77 82 83 93 113 131 142 151 152 147 149 152 154 152 151 150 157 165 173 179 178 169 164 167 171 182 195 202 208 214 221
263 288 325 53 80 75 63 67 69 76 68 61 68 82 94 96 95 90 77 74 74 79 95 116 131 144 157 155 153 158 161 164 166 166 169 174 183 183 180 170 164 166 174 184 193 203 209 218 224
267 284 360 38 65 80 77 76 76 87 85 72 67 84 105 109 104 96 85 75 68 67 72 83 102 123 133 142 149 163 167 170 174 176 179 185 182 178 178 164 162 173 182 190 198 210 217 223 228
242 287 14 53 73 86 82 84 95 96 89 85 85 88 102 108 108 100 93 86 73 66 68 71 72 67 85 96 130 153 149 151 157 138 157 165 171 168 148 154 169 180 189 196 207 221 225 228 227
253 275 7 60 66 75 83 83 86 95 100 102 109 110 113 113 109 99 92 87 79 69 66 76 84 67 58 66 93 107 112 129 132 123 133 129 127 124 123 149 165 184 189 200 200 216 219 219 214
239 250 244 96 78 61 73 86 83 80 102 120 115 116 120 119 116 112 101 92 88 77 72 72 75 74 62 59 62 87 93 106 108 111 95 92 93 68 86 102 128 164 171 176 196 217 210 223 218
274 243 214 114 120 97 103 93 96 101 111 112 114 117 118 115 111 110 107 98 88 79 76 76 73 68 60 62 49 78 78 75 91 98 94 80 88 79 71 67 53 11 65 129 284 260 230 212 215
275 267 238 187 156 182 150 119 112 121 127 125 125 126 125 116 111 109 110 107 102 95 87 86 89 90 75 66 54 73 90 100 92 92 82 76 79 76 67 79 87 11 29 110 237 283 318 248 217
262 261 246 215 213 201 211 147 132 141 135 138 138 135 128 124 121 113 112 111 107 101 93 102 112 102 94 82 51 65 66 80 86 88 85 76 64 73 73 98 65 9 341 332 261 336 309 232 230
258 250 245 230 220 204 223 158 132 148 146 148 147 138 133 131 125 109 110 110 107 102 94 88 97 101 103 98 76 62 65 71 81 86 83 78 66 70 69 86 49 356 335 311 289 24 318 290 259
253 238 224 229 239 224 219 157 145 176 160 154 153 148 147 142 127 118 118 113 105 101 99 92 87 99 104 112 106 97 89 76 79 82 81 78 74 69 47 80 60 336 18 357 351 29 9 0 313
257 252 226 214 221 232 227 160 170 188 172 162 160 153 149 144 137 132 123 121 115 109 105 101 99 97 106 107 106 98 90 85 78 79 70 72 68 67 35 87 63 7 47 13 2 3 353 316 265
263 269 268 245 223 247 251 183 188 194 193 171 158 156 150 142 136 129 126 122 116 111 111 110 108 107 108 106 106 106 103 105 97 92 81 69 57 53 43 40 39 357 71 36 350 359 340 316 284
262 270 274 256 239 248 245 223 209 209 190 171 161 160 158 150 138 133 134 129 125 122 120 116 114 112 111 113 115 125 114 105 98 78 75 59 49 38 48 45 15 3 27 18 322 328 326 313 317
265 268 273 277 267 247 245 225 242 231 200 163 160 160 154 146 140 140 139 136 134 130 126 123 122 120 118 111 117 103 92 79 81 87 79 50 44 46 30 46 23 360 9 354 298 336 317 310 315
263 267 271 269 271 264 263 246 226 225 204 170 161 155 153 146 144 145 145 145 144 141 135 127 127 122 116 113 115 121 116 108 90 92 91 74 43 46 43 44 26 5 16 10 345 18 339 324 323
274 281 276 276 276 279 268 255 225 195 195 176 164 157 153 148 147 147 147 146 146 141 139 135 131 129 126 130 117 110 98 90 88 100 109 104 70 46 41 35 25 20 21 10 357 359 350 341 334
264 271 272 267 263 261 265 260 221 200 183 170 161 160 153 150 146 144 141 142 146 145 144 140 137 139 140 138 128 117 105 76 77 75 94 115 90 51 37 48 28 22 10 5 353 345 353 353 345
253 260 265 272 264 262 268 256 205 195 167 156 156 156 154 148 143 143 146 148 149 148 147 143 144 144 142 139 134 131 134 115 88 75 73 68 69 63 32 39 32 18 356 358 356 352 347 358 340
246 256 263 271 268 272 287 262 200 174 154 139 140 146 145 146 146 148 148 150 153 151 149 144 143 144 144 146 142 133 130 129 94 58 45 63 59 62 49 44 33 15 3 358 354 336 349 356 329
246 255 266 268 277 278 249 233 190 158 148 146 140 136 143 151 151 149 149 150 152 152 153 151 146 145 151 155 150 141 136 121 95 67 68 62 62 72 58 47 43 25 8 356 346 343 354 347 347
240 253 259 259 277 273 271 246 196 154 148 136 130 135 141 149 151 142 140 137 135 145 149 144 145 149 154 154 160 147 139 125 104 78 71 63 54 41 42 36 27 17 3 353 349 340 357 358 350
235 240 250 260 255 268 272 273 115 136 146 157 145 139 143 149 141 139 136 133 130 135 146 146 148 150 150 149 145 133 145 143 136 119 93 84 69 57 50 46 24 13 4 358 355 342 355 349 340
257 244 247 251 259 271 274 258 99 131 173 169 140 133 135 134 131 129 130 134 134 135 140 145 151 156 157 155 151 156 153 151 149 127 116 115 116 97 78 60 31 18 26 9 358 343 346 347 345